Time,TemperatureF,DewpointF,PressureIn,WindDirection,WindDirectionDegrees,WindSpeedMPH,WindSpeedGustMPH,Humidity,HourlyPrecipIn,Conditions,Clouds,dailyrainin,SoftwareType,DateUTC
2013-09-25 00:13:00,60.8,59.0,29.95,West,271,0.0,1.0,95,0.00,,,0.00,weatherlink.com 1.10,2013-09-25 04:13:00,
2013-09-25 00:28:00,60.8,59.0,29.94,West,279,0.0,1.0,95,0.00,,,0.00,weatherlink.com 1.10,2013-09-25 04:28:00,
2013-09-25 00:43:00,61.0,60.0,29.93,West,279,0.0,0.0,95,0.00,,,0.00,weatherlink.com 1.10,2013-09-25 04:43:00,
2013-09-25 00:58:00,61.0,60.0,29.93,West,279,0.0,0.0,95,0.00,,,0.00,weatherlink.com 1.10,2013-09-25 04:58:00,
2013-09-25 01:13:00,61.0,60.0,29.93,West,280,0.0,0.0,95,0.00,,,0.00,weatherlink.com 1.10,2013-09-25 05:13:00,
2013-09-25 01:28:00,60.8,59.0,29.93,West,280,0.0,0.0,95,0.00,,,0.00,weatherlink.com 1.10,2013-09-25 05:28:00,
2013-09-25 01:43:00,60.4,59.0,29.92,West,279,0.0,1.0,95,0.00,,,0.00,weatherlink.com 1.10,2013-09-25 05:43:00,
2013-09-25 01:58:00,60.2,59.0,29.92,West,279,0.0,1.0,96,0.00,,,0.00,weatherlink.com 1.10,2013-09-25 05:58:00,
2013-09-25 02:13:00,60.3,59.0,29.92,West,280,0.0,0.0,96,0.00,,,0.00,weatherlink.com 1.10,2013-09-25 06:13:00,
2013-09-25 02:28:00,60.3,59.0,29.92,West,279,0.0,-999.0,96,-99.99,,,0.00,weatherlink.com 1.10,2013-09-25 06:28:00,
2013-09-25 02:43:00,60.4,59.0,29.91,North,11,0.0,1.0,96,0.00,,,0.00,weatherlink.com 1.10,2013-09-25 06:43:00,
2013-09-25 02:58:00,60.4,59.0,29.91,North,11,0.0,0.0,96,0.00,,,0.00,weatherlink.com 1.10,2013-09-25 06:58:00,
2013-09-25 03:13:00,60.4,59.0,29.90,North,11,0.0,0.0,96,0.00,,,0.00,weatherlink.com 1.10,2013-09-25 07:13:00,
2013-09-25 03:28:00,60.4,59.0,29.90,North,10,0.0,0.0,96,0.00,,,0.00,weatherlink.com 1.10,2013-09-25 07:28:00,
2013-09-25 03:43:00,60.4,59.0,29.90,NNE,20,0.0,0.0,96,0.00,,,0.00,weatherlink.com 1.10,2013-09-25 07:43:00,
2013-09-25 03:58:00,60.4,59.0,29.90,NNE,20,0.0,0.0,96,0.00,,,0.00,weatherlink.com 1.10,2013-09-25 07:58:00,
2013-09-25 04:13:00,60.4,59.0,29.90,NNE,20,0.0,0.0,96,0.00,,,0.00,weatherlink.com 1.10,2013-09-25 08:13:00,
2013-09-25 04:28:00,60.4,59.0,29.89,North,5,0.0,1.0,96,0.00,,,0.00,weatherlink.com 1.10,2013-09-25 08:28:00,
2013-09-25 04:43:00,60.5,59.0,29.89,North,5,0.0,0.0,96,0.00,,,0.00,weatherlink.com 1.10,2013-09-25 08:43:00,
2013-09-25 04:59:00,60.5,59.0,29.89,North,5,0.0,1.0,96,0.00,,,0.00,weatherlink.com 1.10,2013-09-25 08:59:00,
2013-09-25 05:14:00,60.5,59.0,29.89,North,5,0.0,0.0,96,0.00,,,0.00,weatherlink.com 1.10,2013-09-25 09:14:00,
2013-09-25 05:29:00,60.5,59.0,29.90,North,5,0.0,0.0,96,0.01,,,0.01,weatherlink.com 1.10,2013-09-25 09:29:00,
2013-09-25 05:44:00,60.5,59.0,29.90,North,5,0.0,1.0,96,0.04,,,0.04,weatherlink.com 1.10,2013-09-25 09:44:00,
2013-09-25 05:59:00,60.5,59.0,29.89,North,5,0.0,0.0,96,0.09,,,0.09,weatherlink.com 1.10,2013-09-25 09:59:00,
2013-09-25 06:14:00,60.4,60.0,29.90,North,5,0.0,0.0,97,0.16,,,0.16,weatherlink.com 1.10,2013-09-25 10:14:00,
2013-09-25 06:29:00,60.2,59.0,29.89,North,5,0.0,0.0,97,0.20,,,0.21,weatherlink.com 1.10,2013-09-25 10:29:00,
2013-09-25 06:44:00,60.2,59.0,29.89,NE,44,1.0,2.0,97,0.22,,,0.26,weatherlink.com 1.10,2013-09-25 10:44:00,
2013-09-25 06:54:00,60.2,59.3,29.89,NE,44,0.0,2.0,97,0.09,,,0.27,Wunderground v.1.15,2013-09-25 10:54:00,
2013-09-25 07:00:00,60.2,59.0,29.89,NNE,16,1.0,1.0,97,0.19,,,0.28,weatherlink.com 1.10,2013-09-25 11:00:00,
2013-09-25 07:05:00,60.2,59.3,29.89,NNE,16,0.0,1.0,97,0.06,,,0.28,Wunderground v.1.15,2013-09-25 11:05:00,
2013-09-25 07:10:00,60.2,59.3,29.89,NNE,16,0.0,0.0,97,0.06,,,0.28,Wunderground v.1.15,2013-09-25 11:10:00,
2013-09-25 07:15:00,60.2,59.3,29.89,NNE,16,0.0,0.0,97,0.04,,,0.28,Wunderground v.1.15,2013-09-25 11:15:00,
2013-09-25 07:21:00,60.1,59.2,29.89,NNE,16,0.0,0.0,97,0.18,,,0.30,Wunderground v.1.15,2013-09-25 11:21:00,
2013-09-25 07:26:00,60.1,59.2,29.89,NNE,16,0.0,0.0,97,0.11,,,0.31,Wunderground v.1.15,2013-09-25 11:26:00,
2013-09-25 07:32:00,60.1,59.2,29.89,NNE,16,0.0,0.0,97,0.26,,,0.33,Wunderground v.1.15,2013-09-25 11:32:00,
2013-09-25 07:38:00,60.1,59.2,29.88,NNE,16,0.0,0.0,97,0.27,,,0.35,Wunderground v.1.15,2013-09-25 11:38:00,
2013-09-25 07:43:00,60.0,59.1,29.88,NNE,16,0.0,0.0,97,0.24,,,0.37,Wunderground v.1.15,2013-09-25 11:43:00,
2013-09-25 07:49:00,59.9,59.0,29.88,WNW,283,0.0,1.0,97,0.13,,,0.38,Wunderground v.1.15,2013-09-25 11:49:00,
2013-09-25 07:55:00,60.0,59.1,29.89,WNW,283,0.0,0.0,97,0.06,,,0.38,Wunderground v.1.15,2013-09-25 11:55:00,
2013-09-25 08:14:00,59.9,59.0,29.89,North,358,0.0,1.0,97,0.12,,,0.40,weatherlink.com 1.10,2013-09-25 12:14:00,
2013-09-25 08:29:00,59.8,59.0,29.89,NE,34,0.0,0.0,97,0.11,,,0.43,weatherlink.com 1.10,2013-09-25 12:29:00,
2013-09-25 08:44:00,59.8,59.0,29.90,NW,315,1.0,2.0,97,0.10,,,0.48,weatherlink.com 1.10,2013-09-25 12:44:00,
2013-09-25 08:59:00,59.8,59.0,29.90,NW,315,0.0,0.0,97,0.13,,,0.52,weatherlink.com 1.10,2013-09-25 12:59:00,
2013-09-25 09:14:00,59.9,59.0,29.90,NW,315,0.0,1.0,97,0.14,,,0.54,weatherlink.com 1.10,2013-09-25 13:14:00,
2013-09-25 09:29:00,60.0,59.0,29.91,NW,315,0.0,0.0,97,0.12,,,0.55,weatherlink.com 1.10,2013-09-25 13:29:00,
2013-09-25 09:44:00,60.0,60.0,29.92,NW,315,0.0,0.0,98,0.08,,,0.56,weatherlink.com 1.10,2013-09-25 13:44:00,
2013-09-25 09:59:00,60.2,60.0,29.91,East,100,1.0,1.0,98,0.10,,,0.62,weatherlink.com 1.10,2013-09-25 13:59:00,
2013-09-25 10:14:00,60.2,59.0,29.91,SW,218,0.0,2.0,97,0.11,,,0.65,weatherlink.com 1.10,2013-09-25 14:14:00,
2013-09-25 10:29:00,60.3,60.0,29.91,WNW,294,0.0,3.0,97,0.10,,,0.65,weatherlink.com 1.10,2013-09-25 14:29:00,
2013-09-25 10:44:00,60.4,60.0,29.91,North,358,0.0,2.0,97,0.09,,,0.65,weatherlink.com 1.10,2013-09-25 14:44:00,
2013-09-25 10:59:00,60.4,59.0,29.91,ESE,123,1.0,2.0,96,0.04,,,0.66,weatherlink.com 1.10,2013-09-25 14:59:00,
2013-09-25 11:14:00,60.6,59.0,29.92,NNE,22,0.0,2.0,95,0.01,,,0.66,weatherlink.com 1.10,2013-09-25 15:14:00,
2013-09-25 11:29:00,60.5,59.0,29.91,NW,321,2.0,2.0,95,0.02,,,0.67,weatherlink.com 1.10,2013-09-25 15:29:00,
2013-09-25 11:44:00,60.5,59.0,29.91,NE,55,0.0,5.0,94,0.03,,,0.68,weatherlink.com 1.10,2013-09-25 15:44:00,
2013-09-25 11:59:00,60.5,59.0,29.91,NW,324,0.0,1.0,96,0.03,,,0.69,weatherlink.com 1.10,2013-09-25 15:59:00,
2013-09-25 12:14:00,60.3,59.0,29.91,NNW,328,0.0,1.0,96,0.05,,,0.71,weatherlink.com 1.10,2013-09-25 16:14:00,
2013-09-25 12:29:00,60.6,60.0,29.91,WNW,288,0.0,1.0,96,0.09,,,0.76,weatherlink.com 1.10,2013-09-25 16:29:00,
2013-09-25 12:44:00,61.1,60.0,29.90,NE,39,0.0,1.0,96,0.10,,,0.78,weatherlink.com 1.10,2013-09-25 16:44:00,
2013-09-25 12:59:00,61.2,59.0,29.90,NNW,347,0.0,1.0,93,0.09,,,0.78,weatherlink.com 1.10,2013-09-25 16:59:00,
2013-09-25 13:14:00,61.1,60.0,29.90,SSE,155,0.0,0.0,95,0.08,,,0.79,weatherlink.com 1.10,2013-09-25 17:14:00,
2013-09-25 13:29:00,60.6,60.0,29.89,SSE,155,0.0,0.0,96,0.09,,,0.85,weatherlink.com 1.10,2013-09-25 17:29:00,
2013-09-25 13:44:00,60.5,59.0,29.89,SSE,155,0.0,0.0,96,0.10,,,0.88,weatherlink.com 1.10,2013-09-25 17:44:00,
2013-09-25 13:59:00,60.4,60.0,29.89,West,259,0.0,1.0,97,0.13,,,0.91,weatherlink.com 1.10,2013-09-25 17:59:00,
2013-09-25 14:14:00,60.5,60.0,29.88,West,260,0.0,1.0,97,0.15,,,0.94,weatherlink.com 1.10,2013-09-25 18:14:00,
2013-09-25 14:44:00,61.0,60.0,29.87,West,259,0.0,0.0,97,0.08,,,0.96,weatherlink.com 1.10,2013-09-25 18:44:00,
2013-09-25 14:59:00,61.1,60.0,29.86,ENE,71,0.0,1.0,97,0.05,,,0.96,weatherlink.com 1.10,2013-09-25 18:59:00,
2013-09-25 15:14:00,61.1,60.0,29.87,WSW,249,0.0,1.0,97,0.02,,,0.96,weatherlink.com 1.10,2013-09-25 19:14:00,
2013-09-25 15:29:00,60.7,60.0,29.86,NNE,22,0.0,1.0,96,0.01,,,0.96,weatherlink.com 1.10,2013-09-25 19:29:00,
2013-09-25 15:44:00,60.7,60.0,29.86,SW,229,0.0,1.0,96,0.01,,,0.97,weatherlink.com 1.10,2013-09-25 19:44:00,
2013-09-25 15:59:00,61.2,60.0,29.86,WNW,285,0.0,2.0,95,0.01,,,0.97,weatherlink.com 1.10,2013-09-25 19:59:00,
2013-09-25 16:14:00,61.2,60.0,29.86,WSW,255,0.0,1.0,96,0.01,,,0.97,weatherlink.com 1.10,2013-09-25 20:14:00,
2013-09-25 16:29:00,61.4,60.0,29.86,West,266,0.0,1.0,95,0.01,,,0.97,weatherlink.com 1.10,2013-09-25 20:29:00,
2013-09-25 16:44:00,61.4,60.0,29.86,NNW,335,0.0,1.0,96,0.00,,,0.97,weatherlink.com 1.10,2013-09-25 20:44:00,
2013-09-25 16:59:00,61.3,60.0,29.86,NNW,334,0.0,0.0,96,0.00,,,0.97,weatherlink.com 1.10,2013-09-25 20:59:00,
2013-09-25 17:14:00,61.2,60.0,29.86,North,4,0.0,1.0,96,0.00,,,0.97,weatherlink.com 1.10,2013-09-25 21:14:00,
2013-09-25 17:29:00,60.8,59.0,29.86,NE,34,0.0,1.0,95,0.00,,,0.97,weatherlink.com 1.10,2013-09-25 21:29:00,
2013-09-25 17:44:00,60.7,59.0,29.86,WSW,243,1.0,1.0,95,0.00,,,0.97,weatherlink.com 1.10,2013-09-25 21:44:00,
2013-09-25 17:59:00,60.7,59.0,29.86,NNE,32,0.0,1.0,95,0.00,,,0.97,weatherlink.com 1.10,2013-09-25 21:59:00,
2013-09-25 18:14:00,60.5,59.0,29.87,WSW,246,0.0,4.0,94,0.00,,,0.97,weatherlink.com 1.10,2013-09-25 22:14:00,
2013-09-25 18:29:00,60.3,59.0,29.87,NW,312,0.0,1.0,95,0.00,,,0.97,weatherlink.com 1.10,2013-09-25 22:29:00,
2013-09-25 18:44:00,59.7,59.0,29.87,SW,231,0.0,1.0,96,0.00,,,0.97,weatherlink.com 1.10,2013-09-25 22:44:00,
2013-09-25 18:59:00,59.5,58.0,29.87,ENE,64,0.0,3.0,96,0.00,,,0.97,weatherlink.com 1.10,2013-09-25 22:59:00,
2013-09-25 19:14:00,59.3,58.0,29.88,NNW,345,0.0,1.0,96,0.00,,,0.97,weatherlink.com 1.10,2013-09-25 23:14:00,
2013-09-25 19:29:00,59.2,58.0,29.88,NE,48,0.0,0.0,96,0.00,,,0.97,weatherlink.com 1.10,2013-09-25 23:29:00,
2013-09-25 19:44:00,59.2,58.0,29.88,NE,50,1.0,2.0,96,0.00,,,0.97,weatherlink.com 1.10,2013-09-25 23:44:00,
2013-09-25 19:59:00,59.0,58.0,29.88,North,1,1.0,1.0,96,0.00,,,0.97,weatherlink.com 1.10,2013-09-25 23:59:00,
2013-09-25 20:14:00,58.9,58.0,29.89,North,349,0.0,3.0,96,0.00,,,0.97,weatherlink.com 1.10,2013-09-26 00:14:00,
2013-09-25 20:30:00,58.9,58.0,29.89,ENE,57,0.0,2.0,96,0.00,,,0.97,weatherlink.com 1.10,2013-09-26 00:30:00,
2013-09-25 20:45:00,58.8,58.0,29.90,East,93,0.0,1.0,96,0.00,,,0.97,weatherlink.com 1.10,2013-09-26 00:45:00,
2013-09-25 20:51:00,58.8,57.7,29.90,SW,234,0.0,0.0,96,0.00,,,0.97,Wunderground v.1.15,2013-09-26 00:51:00,
2013-09-25 20:57:00,58.8,57.7,29.90,SW,234,0.0,0.0,96,0.00,,,0.97,Wunderground v.1.15,2013-09-26 00:57:00,
2013-09-25 21:04:00,58.8,57.7,29.90,WNW,297,0.0,0.0,96,0.00,,,0.97,Wunderground v.1.15,2013-09-26 01:04:00,
2013-09-25 21:09:00,58.8,58.0,29.90,WNW,287,0.0,0.0,97,0.00,,,0.97,Wunderground v.1.15,2013-09-26 01:09:00,
2013-09-25 21:15:00,58.8,57.7,29.90,WNW,287,0.0,0.0,96,0.00,,,0.97,Wunderground v.1.15,2013-09-26 01:15:00,
2013-09-25 21:21:00,58.7,57.6,29.91,WNW,287,0.0,0.0,96,0.00,,,0.97,Wunderground v.1.15,2013-09-26 01:21:00,
2013-09-25 21:27:00,58.6,57.5,29.91,ENE,58,0.0,0.0,96,0.00,,,0.97,Wunderground v.1.15,2013-09-26 01:27:00,
2013-09-25 21:32:00,58.6,57.5,29.91,ENE,58,0.0,0.0,96,0.00,,,0.97,Wunderground v.1.15,2013-09-26 01:32:00,
2013-09-25 21:37:00,58.7,57.6,29.91,ENE,58,0.0,0.0,96,0.00,,,0.97,Wunderground v.1.15,2013-09-26 01:37:00,
2013-09-25 21:43:00,58.7,57.6,29.91,ENE,58,0.0,0.0,96,0.00,,,0.97,Wunderground v.1.15,2013-09-26 01:43:00,
2013-09-25 21:49:00,58.6,57.5,29.91,WNW,285,0.0,1.0,96,0.00,,,0.97,Wunderground v.1.15,2013-09-26 01:49:00,
2013-09-25 21:54:00,58.7,57.6,29.91,West,271,0.0,0.0,96,0.00,,,0.97,Wunderground v.1.15,2013-09-26 01:54:00,
2013-09-25 22:00:00,58.8,58.0,29.91,SE,139,0.0,1.0,96,0.00,,,0.97,weatherlink.com 1.10,2013-09-26 02:00:00,
2013-09-25 22:05:00,58.6,57.5,29.91,SE,140,0.0,0.0,96,0.00,,,0.97,Wunderground v.1.15,2013-09-26 02:05:00,
2013-09-25 22:10:00,58.6,57.5,29.91,SE,140,0.0,0.0,96,0.00,,,0.97,Wunderground v.1.15,2013-09-26 02:10:00,
2013-09-25 22:15:00,58.6,57.5,29.91,SSE,167,0.0,0.0,96,0.00,,,0.97,Wunderground v.1.15,2013-09-26 02:15:00,
2013-09-25 22:21:00,58.5,57.4,29.91,SSE,167,0.0,0.0,96,0.00,,,0.97,Wunderground v.1.15,2013-09-26 02:21:00,
2013-09-25 22:26:00,58.5,57.4,29.91,WNW,290,0.0,1.0,96,0.00,,,0.97,Wunderground v.1.15,2013-09-26 02:26:00,
2013-09-25 22:31:00,58.4,57.3,29.91,WNW,291,0.0,1.0,96,0.00,,,0.97,Wunderground v.1.15,2013-09-26 02:31:00,
2013-09-25 22:37:00,58.4,57.3,29.91,NNE,27,0.0,1.0,96,0.00,,,0.97,Wunderground v.1.15,2013-09-26 02:37:00,
2013-09-25 22:42:00,58.4,57.3,29.91,NNE,27,0.0,1.0,96,0.00,,,0.97,Wunderground v.1.15,2013-09-26 02:42:00,
2013-09-25 22:47:00,58.3,57.2,29.92,NNE,29,0.0,1.0,96,0.00,,,0.97,Wunderground v.1.15,2013-09-26 02:47:00,
2013-09-25 22:53:00,58.2,57.1,29.91,NNE,29,0.0,1.0,96,0.00,,,0.97,Wunderground v.1.15,2013-09-26 02:53:00,
2013-09-25 22:59:00,58.0,56.9,29.92,NNE,29,0.0,1.0,96,0.00,,,0.97,Wunderground v.1.15,2013-09-26 02:59:00,
2013-09-25 23:04:00,58.1,57.0,29.92,NNE,29,0.0,0.0,96,0.00,,,0.97,Wunderground v.1.15,2013-09-26 03:04:00,
2013-09-25 23:10:00,58.0,56.9,29.91,NE,46,0.0,0.0,96,0.00,,,0.97,Wunderground v.1.15,2013-09-26 03:10:00,
2013-09-25 23:15:00,58.0,56.9,29.91,SW,231,0.0,0.0,96,0.00,,,0.97,Wunderground v.1.15,2013-09-26 03:15:00,
2013-09-25 23:20:00,58.0,56.9,29.92,East,79,0.0,1.0,96,0.00,,,0.97,Wunderground v.1.15,2013-09-26 03:20:00,
2013-09-25 23:25:00,58.0,56.9,29.91,East,79,0.0,1.0,96,0.00,,,0.98,Wunderground v.1.15,2013-09-26 03:25:00,
2013-09-25 23:31:00,58.0,57.0,29.91,East,79,0.0,1.0,96,0.01,,,0.98,weatherlink.com 1.10,2013-09-26 03:31:00,
2013-09-25 23:36:00,57.9,56.8,29.91,ENE,70,0.0,0.0,96,0.00,,,0.98,Wunderground v.1.15,2013-09-26 03:36:00,
2013-09-25 23:41:00,57.9,56.8,29.92,NNE,16,0.0,0.0,96,0.00,,,0.98,Wunderground v.1.15,2013-09-26 03:41:00,
2013-09-25 23:46:00,57.9,57.0,29.91,NNE,16,0.0,1.0,96,0.01,,,0.98,weatherlink.com 1.10,2013-09-26 03:46:00,
2013-09-25 23:52:00,58.0,57.2,29.91,NNE,16,0.0,0.0,97,0.00,,,0.98,Wunderground v.1.15,2013-09-26 03:52:00,
2013-09-25 23:58:00,57.9,57.1,29.91,NNE,16,0.0,0.0,97,0.00,,,0.98,Wunderground v.1.15,2013-09-26 03:58:00,